Temp_Advection
nan nan nan nan nan nan nan nan nan nan nan nan nan nan nan nan nan nan nan nan nan nan nan nan nan nan nan nan nan nan nan nan nan nan nan nan nan nan
nan 0 0 0 -0 -0 -0 0 0 0 -0 -1 -1 -0 0 0 0 -0 -0 -0 0 0 0 0 -0 -0 -1 -1 -0 -0 -0 -0 -0 -0 -0 -0 -0 nan
nan -0 0 0 0 0 -0 -0 0 0 -0 -1 -1 -1 -0 0 0 0 0 -0 -0 -0 0 0 -0 -0 -0 -1 -1 -0 -0 -0 -0 -0 -0 -0 -0 nan
nan 0 0 0 0 0 0 -0 0 0 0 -1 -1 -1 -0 -0 -0 -0 0 -0 -0 -0 -0 0 0 -0 -0 -0 -0 -0 -0 -0 -0 -0 -0 -0 -0 nan
nan 0 0 0 0 0 0 0 0 0 0 -0 -1 -1 -1 -0 -0 -0 -0 -0 -0 -0 -0 -0 0 0 -0 -1 -0 -0 -0 -0 -0 -0 -0 0 0 nan
nan -0 -0 0 -0 0 0 0 -0 -0 0 0 -0 -0 -1 -1 -0 -1 -1 -1 -0 -0 -0 -1 -0 0 0 -0 -0 -0 -0 -0 -0 -0 -0 0 0 nan
nan -0 -0 -0 -0 -0 -0 -0 -0 -0 -0 -0 -0 -0 -0 -0 -0 -0 -1 -1 -1 -1 -0 -0 -0 -0 -0 -0 -0 -0 -0 -0 -0 -0 -0 -0 0 nan
nan -0 -0 -0 -0 -0 -0 -0 -0 -0 -0 -1 -1 -0 -0 -0 -0 -0 -0 -0 -1 -1 -1 -0 -0 -0 -0 -1 -1 -0 -0 0 -0 -0 -0 -0 0 nan
nan -0 -0 -0 -0 -0 -0 -0 0 -0 -0 -0 -1 -1 -1 -0 -0 -0 -0 0 -0 -0 -1 -2 -1 -0 0 -0 -1 -0 -0 -0 0 0 -0 0 0 nan
nan -0 -0 -0 -0 -0 -0 -0 0 0 0 0 -0 -0 -0 -0 -0 -0 -0 -0 -1 0 0 -2 -2 -1 -0 -0 -0 -0 -0 -0 -0 0 0 0 0 nan
nan -0 -0 -0 0 -0 -0 -0 -0 0 0 0 0 0 0 0 -0 -1 -0 0 -1 -0 1 -1 -1 -1 -1 -1 -0 -0 0 0 -0 -0 0 0 0 nan
nan -0 -0 -0 -0 -0 -0 -0 -1 -1 -0 -0 -0 0 1 1 1 0 -0 0 0 -1 -0 0 -0 -0 -0 -1 -0 -0 -0 0 1 -0 -1 -0 0 nan
nan -0 -0 -0 -0 -0 -0 -0 -1 -1 -1 -1 -1 -1 -1 0 1 1 0 -0 0 -0 -0 0 -0 -0 -0 -0 -0 -0 -1 -0 0 1 0 -1 -0 nan
nan -0 -0 -0 -0 -0 -0 -0 -0 -0 -1 -1 -1 -1 -1 -1 -0 1 1 0 -1 -1 0 1 -0 -0 -0 -0 -0 0 0 -0 -0 -0 0 0 -0 nan
nan -0 -0 -0 -0 -0 -0 0 0 0 -0 -1 -1 -1 -0 -1 -1 -1 0 0 -1 -1 -0 -0 -0 -0 0 -0 -0 0 -0 0 0 -0 -0 -0 -0 nan
nan -0 -0 -0 -0 -0 -0 -0 0 0 0 -0 -0 -1 -1 -1 1 0 -1 -1 -1 -2 -1 -0 -0 -0 -0 0 0 -0 0 0 0 0 0 -0 -0 nan
nan -0 -0 -0 -0 -0 -0 -0 0 0 1 0 0 0 0 -1 -0 0 0 -1 -0 -1 -2 -1 -0 -0 -0 0 -0 -0 -0 0 0 0 0 -0 -1 nan
nan -0 -0 -0 -0 -0 -1 -1 -1 -0 0 0 0 0 0 1 0 -0 0 0 -0 -0 -1 -2 -1 -0 -0 -0 -0 -0 -0 -0 0 0 0 -0 -1 nan
nan -0 -0 -0 -0 0 0 -1 -1 -0 -0 -0 -0 0 0 0 0 0 -0 -0 -0 -0 0 -1 -1 -1 -1 -1 -1 0 -0 -0 0 0 0 -0 -0 nan
nan -0 -0 -0 -0 0 0 -1 -1 -1 -1 -1 -0 -0 -0 -0 -0 -0 -0 0 -0 -0 -0 -0 -0 -1 -1 -1 -1 -0 0 0 0 0 -0 -0 -0 nan
nan 0 0 0 1 1 0 -0 -1 -1 -1 -0 -0 -1 -1 -1 -1 -0 -0 0 -0 -1 -0 -0 -0 -0 -0 -0 -1 -1 -0 1 0 0 0 0 -0 nan
nan 0 0 1 1 1 0 0 -0 -0 -0 -1 -0 -0 0 -0 -1 -1 -0 -0 -0 -0 -1 -0 -0 -0 -0 -0 -1 -1 -0 0 0 0 0 0 0 nan
nan nan nan nan nan nan nan nan nan nan nan nan nan nan nan nan nan nan nan nan nan nan nan nan nan nan nan nan nan nan nan nan nan nan nan nan nan nan
Wind_Speed
11 12 12 11 12 12 13 13 13 10 12 11 10 8 13 21 20 20 17 18 18 17 16 16 16 16 13 12 12 12 12 11 11 12 11 10 8 13
12 12 13 13 13 13 13 14 15 16 15 18 21 23 22 20 19 20 20 19 19 18 17 17 17 16 15 15 11 11 11 11 10 10 9 8 6 6
12 12 12 13 14 14 15 15 16 18 23 25 26 24 22 22 21 20 20 20 19 19 19 18 18 18 16 16 13 11 10 10 10 9 8 6 6 5
11 12 12 14 14 15 15 16 17 18 22 27 26 26 25 21 20 22 20 19 20 20 20 19 19 18 17 18 15 10 8 8 9 8 7 5 2 6
11 11 12 14 14 15 16 17 17 18 20 25 27 26 27 25 24 21 20 21 21 22 22 21 20 19 18 17 16 12 9 7 8 7 7 6 3 6
10 11 12 13 15 16 16 18 19 20 20 23 26 27 26 25 26 26 25 21 20 19 19 21 20 19 16 15 15 13 11 9 8 7 7 7 9 9
10 11 11 12 13 14 16 17 18 20 21 22 23 26 26 24 23 24 27 25 24 22 18 17 16 16 17 19 20 18 16 13 9 8 7 7 9 11
11 10 11 11 12 12 13 15 16 17 19 21 21 23 24 24 22 23 25 27 27 23 22 23 23 20 20 21 21 21 19 15 12 10 9 8 8 10
12 12 12 12 12 13 12 13 13 14 15 18 20 21 23 23 24 23 23 25 26 27 26 30 26 25 20 21 19 20 19 18 16 13 11 11 10 10
13 14 15 15 16 17 17 17 18 17 16 16 17 19 20 21 22 22 23 25 27 28 26 28 27 26 21 21 20 19 19 18 17 15 13 13 12 12
13 14 15 17 18 19 20 21 21 20 19 21 21 20 20 20 21 23 22 23 26 27 25 25 25 20 18 16 13 14 18 17 18 17 15 14 14 15
12 13 14 16 17 19 21 23 24 24 25 25 24 23 23 23 22 22 22 23 24 26 16 16 19 13 9 13 7 6 7 14 17 18 17 14 14 15
15 16 17 18 18 19 20 22 24 26 27 28 27 25 23 22 23 24 23 22 23 26 25 25 25 22 20 21 20 19 14 9 10 14 15 15 14 15
16 18 19 21 23 23 24 24 24 25 26 26 28 29 28 27 25 24 22 22 23 25 23 21 27 25 22 23 24 21 19 16 13 12 13 15 15 14
19 20 21 21 22 23 24 26 28 28 28 27 27 27 28 30 28 24 21 20 21 23 23 22 22 24 24 29 30 27 23 22 20 20 21 21 20 18
22 23 23 23 23 24 26 26 27 28 29 29 29 28 27 26 27 26 22 21 22 24 20 23 22 22 25 25 25 25 23 21 19 17 18 21 22 23
24 26 27 28 30 31 31 31 30 29 29 28 28 28 28 27 27 24 23 24 24 25 25 21 23 23 24 26 27 24 23 23 20 18 19 21 24 26
25 27 29 31 33 34 35 35 34 32 31 29 29 28 28 27 27 27 24 23 26 26 26 24 24 22 25 26 26 27 27 26 23 21 21 22 21 25
27 29 32 33 34 34 33 33 34 33 31 30 29 29 28 26 26 27 25 28 28 26 27 23 21 25 26 27 25 23 24 25 22 22 21 21 21 20
28 31 33 34 35 34 31 31 32 33 32 31 30 28 27 26 25 27 27 26 27 26 25 23 24 23 26 28 28 23 19 20 21 20 20 19 19 20
31 32 32 33 34 31 28 29 29 30 31 30 29 27 26 25 26 27 27 27 26 25 28 26 25 22 24 22 26 27 25 23 21 21 20 19 19 21
33 33 32 31 30 30 30 29 33 32 32 30 26 25 28 27 28 30 28 28 27 26 27 28 24 22 25 25 28 26 23 22 19 18 19 20 20 16
31 29 28 29 29 29 32 33 35 34 30 26 25 27 28 30 31 32 32 29 30 31 28 26 25 24 24 25 23 24 22 25 23 18 21 19 20 20
Wind_Direction
297 297 300 297 295 295 292 292 287 298 309 306 312 311 307 310 311 314 317 318 322 326 329 329 335 344 333 332 329 329 318 310 311 317 330 339 342 3
296 298 300 299 296 295 291 287 283 277 273 291 296 300 303 306 310 309 311 311 313 315 318 322 322 323 328 328 331 329 326 316 311 315 319 326 323 338
299 298 299 295 295 295 293 290 288 285 283 292 297 302 303 305 306 303 304 305 305 307 311 312 315 318 319 320 324 326 326 322 315 311 313 310 320 320
305 303 301 293 295 295 292 291 291 289 289 293 298 303 304 305 305 306 305 301 299 300 301 303 307 312 313 314 314 315 319 318 315 310 299 288 2 102
317 313 307 302 301 297 294 295 294 291 291 294 298 303 304 309 309 306 303 303 303 303 301 298 298 301 305 308 308 307 308 310 305 301 289 259 200 180
329 324 318 312 309 305 301 300 296 294 294 294 296 300 302 306 306 310 308 306 301 299 301 300 298 295 294 299 305 306 298 302 299 291 281 262 231 202
335 332 328 323 319 314 310 306 302 301 299 298 299 302 305 309 309 308 307 308 306 306 307 301 298 300 297 297 298 296 295 292 288 282 270 261 249 239
337 338 336 334 332 327 323 319 316 312 310 309 306 306 309 311 312 305 304 307 311 308 306 296 296 295 296 292 287 285 284 283 274 268 263 254 248 239
334 333 333 331 329 328 330 330 328 324 316 312 309 311 309 313 310 308 304 299 297 300 299 297 299 297 299 295 282 274 275 272 268 261 252 246 240 236
327 323 322 322 320 317 315 314 313 314 311 306 304 307 307 307 304 304 303 300 299 299 301 296 302 301 302 297 283 268 262 266 264 259 251 240 235 231
330 326 324 323 322 319 318 318 314 311 303 298 293 290 291 298 303 301 300 298 298 301 300 298 302 312 308 306 295 272 257 255 260 259 254 242 237 232
323 322 320 319 319 319 319 318 317 317 314 311 306 302 294 287 287 291 295 289 289 296 304 298 307 312 310 299 281 324 303 255 248 251 254 250 241 236
323 324 324 322 321 320 318 317 316 316 315 315 313 310 306 296 284 282 285 288 283 274 282 287 286 287 271 275 287 298 296 284 257 241 248 258 249 235
317 318 319 319 320 320 317 316 315 313 311 309 308 310 311 307 299 289 286 278 286 282 281 276 275 276 277 275 276 282 286 283 257 249 252 251 257 248
311 313 316 317 316 315 315 315 314 312 310 308 307 306 306 307 305 299 293 281 278 283 283 277 276 274 268 268 272 276 279 283 280 258 251 249 248 248
307 309 312 313 313 312 311 309 307 307 305 306 306 307 309 308 306 306 305 303 292 274 270 276 271 267 263 263 266 269 271 265 271 274 262 248 241 239
305 308 311 311 310 309 306 303 302 300 299 299 299 300 302 307 307 305 302 303 299 299 285 268 269 270 265 263 263 263 266 263 263 267 269 256 246 244
299 303 307 308 308 306 302 300 298 298 298 298 296 294 293 296 302 304 303 297 294 294 293 281 276 274 268 265 260 263 262 263 263 262 262 262 259 245
298 304 306 307 306 302 299 297 297 297 297 296 294 293 290 289 292 294 297 295 294 289 292 290 275 278 277 264 278 271 262 267 268 263 258 258 262 259
300 303 305 308 309 307 300 297 297 297 298 298 294 290 286 287 286 289 292 295 295 290 287 288 277 273 269 268 270 274 272 264 261 265 266 264 262 258
300 301 303 305 306 305 300 300 301 300 301 299 295 293 291 290 287 287 291 292 293 285 283 285 284 273 280 279 269 268 265 270 266 261 263 262 261 260
298 299 298 300 302 299 300 299 303 298 295 293 293 289 291 291 289 283 288 293 292 289 287 283 284 275 269 272 266 271 271 270 273 274 254 253 254 255
295 292 289 295 296 298 299 299 299 296 296 291 288 288 288 290 291 288 283 288 285 291 291 280 283 278 277 269 262 266 265 267 270 266 262 256 257 258
Height
1526 1525 1525 1525 1523 1522 1521 1520 1520 1519 1516 1514 1514 1513 1512 1510 1507 1504 1502 1500 1498 1495 1492 1489 1487 1484 1482 1481 1478 1476 1474 1471 1469 1467 1465 1462 1459 1456
1524 1522 1522 1522 1521 1520 1518 1517 1516 1516 1513 1510 1511 1510 1508 1507 1504 1501 1499 1497 1495 1493 1490 1488 1485 1482 1480 1478 1477 1475 1473 1470 1468 1466 1463 1461 1458 1456
1521 1520 1519 1518 1518 1517 1516 1515 1513 1512 1509 1507 1505 1505 1504 1503 1501 1498 1496 1494 1492 1490 1487 1485 1483 1480 1478 1475 1473 1472 1471 1469 1466 1465 1463 1460 1458 1456
1519 1517 1516 1515 1514 1513 1512 1511 1510 1509 1506 1502 1502 1500 1499 1499 1497 1494 1492 1491 1488 1486 1483 1482 1480 1478 1475 1473 1471 1469 1468 1466 1465 1463 1461 1460 1459 1458
1515 1514 1513 1511 1510 1509 1508 1507 1506 1504 1502 1499 1496 1496 1493 1493 1491 1490 1488 1486 1484 1482 1479 1478 1476 1474 1472 1470 1468 1467 1466 1464 1463 1461 1460 1459 1458 1458
1512 1510 1509 1508 1507 1505 1504 1503 1502 1499 1498 1495 1493 1491 1490 1489 1486 1483 1482 1481 1479 1477 1475 1473 1471 1470 1468 1467 1465 1464 1463 1462 1461 1459 1458 1457 1457 1457
1509 1507 1505 1505 1503 1501 1500 1499 1497 1496 1494 1491 1488 1486 1484 1484 1483 1480 1476 1474 1473 1472 1471 1469 1468 1467 1466 1464 1462 1461 1459 1459 1458 1458 1457 1455 1455 1454
1507 1505 1504 1503 1501 1500 1497 1496 1495 1491 1490 1488 1484 1481 1479 1478 1477 1475 1473 1470 1468 1467 1465 1464 1463 1462 1461 1459 1457 1456 1455 1454 1454 1454 1454 1454 1453 1453
1505 1503 1502 1501 1499 1498 1495 1493 1492 1490 1487 1485 1483 1479 1475 1473 1470 1469 1469 1467 1465 1463 1461 1456 1456 1455 1455 1453 1451 1450 1450 1450 1450 1450 1450 1451 1451 1451
1502 1501 1500 1498 1497 1495 1493 1490 1489 1487 1485 1482 1479 1477 1473 1470 1467 1465 1462 1460 1459 1457 1456 1451 1450 1449 1449 1447 1445 1444 1444 1444 1444 1445 1446 1447 1448 1448
1500 1499 1497 1495 1493 1491 1488 1485 1484 1483 1480 1477 1474 1472 1469 1466 1464 1460 1457 1454 1451 1451 1450 1448 1444 1443 1443 1442 1440 1439 1439 1439 1440 1440 1441 1442 1443 1445
1498 1496 1495 1493 1490 1487 1484 1481 1478 1476 1473 1471 1469 1466 1463 1461 1458 1456 1453 1450 1448 1445 1444 1444 1442 1441 1439 1438 1438 1437 1435 1435 1436 1437 1436 1437 1438 1440
1494 1492 1491 1489 1487 1484 1480 1477 1474 1471 1468 1464 1462 1459 1456 1454 1451 1448 1447 1446 1443 1440 1439 1439 1437 1438 1437 1435 1434 1435 1434 1433 1432 1433 1434 1433 1433 1435
1489 1487 1486 1484 1481 1478 1475 1472 1469 1466 1463 1460 1457 1453 1449 1447 1444 1441 1439 1438 1437 1435 1434 1433 1431 1431 1431 1430 1429 1429 1431 1431 1429 1429 1430 1430 1430 1430
1485 1483 1481 1479 1476 1474 1470 1467 1463 1460 1457 1454 1451 1449 1445 1441 1437 1434 1431 1430 1429 1428 1428 1426 1425 1425 1424 1423 1423 1422 1423 1424 1425 1424 1424 1425 1426 1427
1479 1477 1476 1473 1470 1467 1464 1462 1458 1454 1451 1446 1443 1440 1438 1435 1431 1428 1426 1422 1419 1418 1421 1420 1418 1418 1417 1416 1417 1416 1416 1417 1417 1418 1418 1418 1420 1421
1470 1468 1468 1465 1462 1459 1456 1454 1451 1448 1444 1441 1436 1433 1430 1428 1426 1423 1419 1419 1415 1410 1410 1412 1411 1410 1409 1409 1408 1410 1409 1409 1411 1411 1412 1412 1413 1414
1465 1461 1459 1457 1453 1449 1446 1443 1441 1439 1436 1432 1428 1426 1422 1421 1419 1416 1414 1412 1410 1405 1403 1403 1404 1402 1401 1400 1401 1402 1401 1402 1403 1404 1405 1405 1405 1407
1459 1455 1450 1447 1444 1440 1437 1434 1430 1429 1426 1423 1420 1418 1416 1412 1412 1410 1406 1405 1401 1399 1397 1397 1396 1396 1394 1391 1394 1394 1394 1394 1396 1395 1397 1397 1398 1400
1449 1446 1443 1439 1434 1430 1427 1424 1421 1419 1417 1413 1412 1410 1409 1406 1404 1402 1399 1397 1394 1391 1389 1389 1389 1388 1388 1387 1386 1387 1387 1387 1388 1388 1389 1390 1391 1391
1439 1436 1433 1430 1427 1423 1420 1418 1414 1411 1409 1406 1403 1402 1401 1399 1397 1394 1392 1390 1387 1384 1382 1381 1381 1381 1380 1380 1378 1378 1380 1381 1381 1381 1382 1383 1384 1384
1431 1427 1424 1421 1419 1416 1413 1410 1406 1403 1400 1398 1396 1395 1392 1391 1388 1386 1384 1382 1379 1377 1375 1373 1373 1373 1373 1372 1371 1372 1372 1373 1374 1374 1374 1376 1377 1377
1421 1418 1416 1413 1411 1408 1406 1402 1398 1394 1391 1389 1388 1386 1385 1382 1380 1377 1375 1374 1372 1369 1367 1365 1366 1365 1364 1364 1365 1365 1365 1366 1366 1367 1367 1368 1370 1371